Terug naar catalogus

CZ-4B SEP MOTOR COVER

LostSSO
NORAD 61937·DEBRIS·🇨🇳 China
Deze satellietnaam is nog niet bevestigd door officiële bronnen.

Gelanceerd Nov 13, 2024 vanaf Taiyuan Satellite Launch Center

Loading…

Volgende Passages (komende 24 uur)

TLE

VerouderdSource: Space-Track

Epoch: Dec 4, 2024, 14:52 UTC

1 61937U 24208B   24339.61984667  .00005938  00000-0  68066-3 0  9994
2 61937  97.9895 344.2662 0042659 126.0176 234.5004 14.85629148  3077

Volg CZ-4B SEP MOTOR COVER in realtime met AllMySat

Download on the App Store